Gunnison, CO

11:53 PM MDT on September 25, 2017 (GMT -0600)
Gunnison County

Weather History for KGUC - December, 2012

Change the Weather History Date:

Wednesday, December 26, 2012

  Actual Average Record
Temperature  
Mean Temperature 5 °F -  
Max Temperature 15 °F 23 °F 42 °F (1998)
Min Temperature -5 °F 0 °F -18 °F (2002)
Degree Days  
Heating Degree Days 60    
Moisture  
Dew Point 0 °F    
Average Humidity 71    
Maximum Humidity 100    
Minimum Humidity 38    
Precipitation  
Precipitation 0.01 in - - ()
Sea Level Pressure  
Sea Level Pressure 29.83 in    
Wind  
Wind Speed 1 mph (NW)    
Max Wind Speed 6 mph    
Max Gust Speed -    
Visibility 6 miles    
Events      
Averages and records for this station are not official NWS values.
T = Trace of Precipitation, MM = Missing Value Source: NWS Daily Summary

Daily Weather History Graph

Daily Weather History Graph

Search for Another Location

Airport or City:

Trip Planner

Search our weather history database for the weather conditions in past years. The results will help you decide how hot, cold, wet, or windy it might be!

Date:

Astronomy

Dec. 26, 2012 Rise Set
Actual Time 7:23 AM MST 4:53 PM MST
Civil Twilight 6:54 AM MST 5:23 PM MST
Nautical Twilight 6:20 AM MST 5:56 PM MST
Astronomical Twilight 5:48 AM MST 6:28 PM MST
Moon 3:48 PM MST 5:50 AM MST
Length of Visible Light 10h 28m
Length of Day
9h 29m
Waxing Gibbous, 98% of the Moon is Illuminated
Dec 26
Waxing Gibbous
Dec 28
Full
Jan 4
Last Quarter
Jan 11
New
Jan 18
First Quarter

Hourly Weather History & Observations

Time (MST) Temp. Windchill Dew Point Humidity Pressure Visibility Wind Dir Wind Speed Gust Speed Precip Events Conditions
12:35 AM -5.8 °F - - N/A% 30.07 in 10.0 mi Calm Calm - N/A   Clear
12:55 AM -5.8 °F -14.5 °F -25.6 °F 38% 30.05 in 10.0 mi East 3.5 mph - N/A   Clear
1:35 AM -5.8 °F - -20.2 °F 50% 30.04 in 10.0 mi Calm Calm - N/A   Clear
2:15 AM -5.8 °F - -11.2 °F 77% 30.04 in 10.0 mi Calm Calm - N/A   Clear
2:35 AM -4.0 °F - -11.2 °F 71% 30.03 in 10.0 mi Calm Calm - N/A   Clear
2:55 AM -5.8 °F - -9.4 °F 84% 30.02 in 10.0 mi Calm Calm - N/A   Clear
3:15 AM -4.0 °F - -14.8 °F 60% 30.02 in 7.0 mi Calm Calm - N/A   Scattered Clouds
3:55 AM -4.0 °F - -18.4 °F 50% 30.00 in 10.0 mi Calm Calm - N/A   Mostly Cloudy
4:35 AM -2.2 °F - -18.4 °F 46% 29.99 in 10.0 mi Calm Calm - N/A   Partly Cloudy
4:55 AM -0.4 °F - -0.4 °F 100% 29.99 in 10.0 mi Calm Calm - N/A   Scattered Clouds
5:15 AM -2.2 °F - -18.4 °F 46% 29.98 in 10.0 mi Calm Calm - N/A   Overcast
5:35 AM -0.4 °F - -0.4 °F 100% 29.97 in 10.0 mi Calm Calm - N/A   Overcast
5:55 AM -0.4 °F - -16.6 °F 46% 29.97 in 10.0 mi Calm Calm - N/A   Mostly Cloudy
6:35 AM 1.4 °F - -9.4 °F 61% 29.98 in 10.0 mi Calm Calm - N/A   Overcast
7:15 AM 1.4 °F - -2.2 °F 85% 29.99 in 3.0 mi Calm Calm - N/A   Overcast
7:35 AM 1.4 °F - -13.0 °F 51% 29.98 in 1.0 mi Calm Calm - N/A   Overcast
7:55 AM 1.4 °F - - N/A% 29.97 in 1.2 mi Calm Calm - N/A   Overcast
8:15 AM 3.2 °F - -11.2 °F 51% 29.96 in 1.0 mi Calm Calm - N/A   Overcast
9:15 AM 6.8 °F -0.1 °F -5.8 °F 56% 29.94 in 2.0 mi North 3.5 mph - N/A   Overcast
9:35 AM 6.8 °F -2.0 °F - N/A% 29.94 in 4.0 mi North 4.6 mph - N/A   Overcast
10:15 AM 8.6 °F 2.0 °F -5.8 °F 52% 29.92 in 1.8 mi North 3.5 mph - N/A   Overcast
10:35 AM 8.6 °F -1.3 °F - N/A% 29.91 in 3.0 mi North 5.8 mph - N/A   Overcast
10:55 AM 8.6 °F - 1.4 °F 73% 29.89 in 5.0 mi Calm Calm - N/A   Overcast
11:15 AM 10.4 °F - -9.4 °F 41% 29.88 in 3.0 mi Calm Calm - N/A   Overcast
11:35 AM 10.4 °F - 6.8 °F 85% 29.86 in 1.0 mi Calm Calm - N/A   Overcast
12:35 PM 12.2 °F 6.1 °F -2.2 °F 53% 29.80 in 2.0 mi West 3.5 mph - N/A   Overcast
1:15 PM 14.0 °F 8.2 °F 14.0 °F 100% 29.77 in 9.0 mi WSW 3.5 mph - N/A   Overcast
1:35 PM 14.0 °F 8.2 °F 8.6 °F 79% 29.75 in 10.0 mi West 3.5 mph - N/A   Overcast
1:55 PM 15.8 °F 7.2 °F 1.4 °F 53% 29.75 in 10.0 mi West 5.8 mph - N/A   Overcast
2:15 PM 15.8 °F 8.6 °F 1.4 °F 53% 29.74 in 10.0 mi WSW 4.6 mph - N/A   Overcast
2:35 PM 15.8 °F 8.6 °F 8.6 °F 73% 29.73 in 10.0 mi SW 4.6 mph - N/A   Mostly Cloudy
2:55 PM 15.8 °F 8.6 °F 15.8 °F 100% 29.73 in 10.0 mi SSW 4.6 mph - N/A   Mostly Cloudy
3:15 PM 15.8 °F 10.2 °F 12.2 °F 86% 29.72 in 10.0 mi SW 3.5 mph - N/A   Scattered Clouds
3:35 PM 15.8 °F 7.2 °F 1.4 °F 53% 29.71 in 10.0 mi West 5.8 mph - N/A   Mostly Cloudy
3:55 PM 15.8 °F 10.2 °F 1.4 °F 53% 29.70 in 10.0 mi South 3.5 mph - N/A   Mostly Cloudy
5:15 PM 15.8 °F - 12.2 °F 86% 29.70 in 3.0 mi Calm Calm - N/A   Overcast
5:35 PM 15.8 °F - 6.8 °F 68% 29.71 in 5.0 mi Calm Calm - N/A   Overcast
5:55 PM 15.8 °F 8.6 °F 6.8 °F 68% 29.71 in 8.0 mi East 4.6 mph - N/A   Overcast
6:15 PM 15.8 °F 10.2 °F 6.8 °F 68% 29.71 in 9.0 mi ENE 3.5 mph - N/A   Overcast
6:35 PM 15.8 °F 10.2 °F 8.6 °F 73% 29.71 in 8.0 mi NNE 3.5 mph - N/A   Overcast
6:55 PM 15.8 °F - 12.2 °F 86% 29.71 in 2.5 mi Calm Calm - N/A   Overcast
7:15 PM 15.8 °F - 15.8 °F 100% 29.70 in 7.0 mi Calm Calm - N/A   Mostly Cloudy
7:35 PM 12.2 °F - 10.4 °F 92% 29.68 in 9.0 mi Calm Calm - N/A   Partly Cloudy
7:55 PM 10.4 °F - 1.4 °F 67% 29.69 in 10.0 mi Calm Calm - N/A   Mostly Cloudy
8:15 PM 10.4 °F - 1.4 °F 67% 29.68 in 6.0 mi Calm Calm - N/A   Mostly Cloudy
8:35 PM 10.4 °F - 10.4 °F 100% 29.68 in 1.2 mi Calm Calm - N/A   Overcast
8:55 PM 12.2 °F - 12.2 °F 100% 29.68 in 3.0 mi Calm Calm - N/A   Overcast
9:15 PM 12.2 °F - 5.0 °F 73% 29.68 in 1.2 mi Calm Calm - 0.01 in   Overcast
9:35 PM 14.0 °F - 1.4 °F 57% 29.67 in 2.5 mi Calm Calm - 0.01 in   Overcast
9:55 PM 14.0 °F 8.2 °F 5.0 °F 67% 29.67 in 1.0 mi NNE 3.5 mph - 0.01 in   Overcast
10:35 PM 12.2 °F - 12.2 °F 100% 29.68 in 7.0 mi Calm Calm - N/A   Overcast
10:55 PM 12.2 °F - 12.2 °F 100% 29.68 in 3.0 mi Calm Calm - N/A   Overcast
11:15 PM 12.2 °F 4.3 °F 8.6 °F 85% 29.67 in 2.5 mi North 4.6 mph - N/A   Overcast
11:35 PM 12.2 °F - 1.4 °F 62% 29.67 in 3.0 mi Calm Calm - N/A   Overcast